Russellville, AR

4:02 AM CDT on October 21, 2019 (GMT -0500)
Russellville Regional

Weather History for KRUE - August, 2019

Change the Weather History Date:

Monday, August 26, 2019

  Actual Average (WUND) Record (WUND)
Temperature  
Mean Temperature 82 °F -  
Max Temperature 91 °F - - (-1)
Min Temperature 73 °F - - (-1)
Cooling Degree Days 17    
Growing Degree Days 32 (Base 50)    
Moisture  
Dew Point 74 °F    
Average Humidity 81    
Maximum Humidity 97    
Minimum Humidity 61    
Precipitation  
Precipitation 0.00 in - - ()
Sea Level Pressure  
Sea Level Pressure 29.78 in    
Wind  
Wind Speed 3 mph (SE)    
Max Wind Speed 8 mph    
Max Gust Speed -    
Visibility 9 miles    
Events      
Averages and records for this station are not official NWS values.
T = Trace of Precipitation, MM = Missing Value Source: NWS Daily Summary

Daily Weather History Graph

Daily Weather History Graph

Search for Another Location

Airport or City:

Astronomy

Aug. 26, 2019 Rise Set
Actual Time 6:40 AM CDT 7:47 PM CDT
Civil Twilight 6:13 AM CDT 8:13 PM CDT
Nautical Twilight 5:42 AM CDT 8:44 PM CDT
Astronomical Twilight 5:10 AM CDT 9:17 PM CDT
Moon 2:13 AM CDT (8/26) 5:03 PM CDT (8/26)
Length of Visible Light 13h 59m
Length of Day
13h 07m
Waning Crescent, 19% of the Moon is Illuminated
Aug 26
Waning Crescent
Aug 30
New
Sep 5
First Quarter
Sep 13
Full
Sep 21
Last Quarter

Hourly Weather History & Observations

Time (CDT) Temp. Heat Index Dew Point Humidity Pressure Visibility Wind Dir Wind Speed Gust Speed Precip Events Conditions
12:53 AM 75.0 °F - 73.0 °F 94% 29.81 in 10.0 mi Variable 3.5 mph - N/A   Overcast
1:53 AM 75.0 °F - 73.0 °F 94% 29.80 in 10.0 mi Calm Calm - N/A   Overcast
3:01 AM 75.0 °F - 73.0 °F 94% 29.81 in 7.0 mi Variable 3.5 mph - N/A   Overcast
3:53 AM 75.0 °F - 73.0 °F 94% 29.78 in 6.0 mi Calm Calm - N/A   Overcast
4:53 AM 73.9 °F - 73.0 °F 97% 29.78 in 6.0 mi Calm Calm - N/A   Overcast
5:15 AM 73.9 °F - 73.0 °F 97% 29.80 in 6.0 mi Calm Calm - N/A   Overcast
5:53 AM 73.9 °F - 73.0 °F 97% 29.78 in 7.0 mi ESE 4.6 mph - N/A   Overcast
6:53 AM 73.9 °F - 73.0 °F 97% 29.78 in 7.0 mi Calm Calm - N/A   Overcast
7:07 AM 75.0 °F - 73.0 °F 94% 29.80 in 7.0 mi Calm Calm - N/A   Overcast
7:53 AM 75.9 °F - 73.0 °F 91% 29.78 in 10.0 mi Calm Calm - N/A   Overcast
8:53 AM 78.1 °F - 73.9 °F 87% 29.78 in 10.0 mi Variable 4.6 mph - N/A   Overcast
9:14 AM 78.1 °F - 73.9 °F 87% 29.81 in 10.0 mi Calm Calm - N/A   Overcast
9:53 AM 79.0 °F - 73.0 °F 82% 29.80 in 10.0 mi SSE 3.5 mph - N/A   Overcast
10:31 AM 81.0 °F 86.2 °F 73.9 °F 79% 29.83 in 10.0 mi Variable 3.5 mph - N/A   Overcast
10:53 AM 81.0 °F 86.2 °F 73.9 °F 79% 29.81 in 10.0 mi SSE 4.6 mph - N/A   Overcast
11:53 AM 84.0 °F 91.9 °F 75.0 °F 74% 29.79 in 10.0 mi Variable 5.8 mph - N/A   Mostly Cloudy
12:16 PM 84.9 °F 93.3 °F 75.0 °F 72% 29.81 in 10.0 mi SE 8.1 mph - N/A   Scattered Clouds
12:31 PM 84.9 °F 93.3 °F 75.0 °F 72% 29.81 in 10.0 mi South 5.8 mph - N/A   Mostly Cloudy
12:53 PM 86.0 °F 95.1 °F 75.0 °F 70% 29.78 in 10.0 mi South 4.6 mph - N/A   Mostly Cloudy
1:37 PM 89.1 °F 100.2 °F 75.9 °F 65% 29.78 in 10.0 mi North - - N/A   Mostly Cloudy
1:53 PM 90.0 °F 101.3 °F 75.9 °F 63% 29.76 in 10.0 mi South 6.9 mph - N/A   Mostly Cloudy
2:53 PM 90.0 °F 100.2 °F 75.0 °F 61% 29.76 in 10.0 mi Variable 4.6 mph - N/A   Mostly Cloudy
3:53 PM 91.0 °F 102.9 °F 75.9 °F 61% 29.75 in 10.0 mi Variable 3.5 mph - N/A   Mostly Cloudy
4:53 PM 89.1 °F 100.2 °F 75.9 °F 65% 29.75 in 10.0 mi Variable 4.6 mph - N/A   Scattered Clouds
5:53 PM 90.0 °F 102.5 °F 77.0 °F 65% 29.75 in 10.0 mi ESE 5.8 mph - N/A   Partly Cloudy
6:53 PM 88.0 °F 98.5 °F 75.9 °F 67% 29.74 in 10.0 mi North - - N/A   Partly Cloudy
7:53 PM 84.9 °F 93.3 °F 75.0 °F 72% 29.74 in 10.0 mi Calm Calm - N/A   Clear
8:53 PM 82.0 °F 88.6 °F 75.0 °F 79% 29.75 in 10.0 mi Variable 3.5 mph - N/A   Clear
9:53 PM 82.0 °F 88.6 °F 75.0 °F 79% 29.75 in 10.0 mi Calm Calm - N/A   Clear
10:53 PM 78.1 °F - 75.0 °F 90% 29.78 in 10.0 mi NE 3.5 mph - N/A   Clear
11:53 PM 79.0 °F - 75.0 °F 88% 29.82 in 10.0 mi Calm Calm - N/A   Clear